Location: Hohenfelde
(53.8441°N, 9.6220°E)
Time: 11:56:51
(UTC+00:00)

Meteor 1-25 Rocket - Pass Details

Date: 14 July 2020
Orbit: 837 x 890 km, 81.2° (Epoch: 12 August)

Event Time Altitude Azimuth Distance (km) Brightness Sun altitude
Exits shadow 00:47:43 17° 202° (SSW) 1,994 5.5 -12.6°
Maximum altitude 00:52:02 73° 285° (WNW) 885 4.3 -12.3°
Drops below altitude 10° 00:57:38 10° 11° (N) 2,467 8.1 -12.1°
Sets 01:00:04 0° 14° (NNE) 3,405 9.3 -11.9°
